Location: Quaker Farms
(41.4276°N, 73.1557°W)
Time: 22:55:56
(UTC+00:00)

Vanguard 1 - Pass Details

Date: 17 June 2021
Orbit: 651 x 3832 km, 34.2° (Epoch: 25 July)

Event Time Altitude Azimuth Distance (km) Brightness Sun altitude
Rises 03:26:47 0° 245° (WSW) 7,964 14.7 -22.1°
Reaches altitude 10° 03:32:30 10° 242° (WSW) 6,846 14.3 -22.5°
Maximum altitude 03:53:41 62° 169° (S) 3,096 12.2 -23.7°
Drops below altitude 10° 04:06:17 10° 93° (E) 4,327 13.2 -24.3°
Sets 04:09:00 0° 90° (E) 4,996 13.6 -24.4°
